Regional Weather Roundup
Issued by NWS

Home | Current Version | Previous Version | Text Only | Print | Product List | Glossary On
Versions: 1 2 3 4 5 6 7 8 9 10 11 12 13 14 15 16 17 18 19 20 21 22 23 24 25 26 27 28 29 30 31 32 33 34 35 36 37 38 39 40 41 42 43 44 45 46 47 48 49
000
ASUS45 KCYS 030510
RWRWY

WYOMING REGIONAL WEATHER ROUNDUP
NATIONAL WEATHER SERVICE CHEYENNE WY
1100 PM MDT SUN AUG 02 2015

NOTE:  "FAIR" INDICATES FEW OR NO CLOUDS BELOW 12,000 FEET
WITH NO SIGNIFICANT WEATHER AND/OR OBSTRUCTIONS TO VISIBILITY.

WYZ001-030600-
YELLOWSTONE NATIONAL PARK

CITY           SKY/WX    TMP DP  RH WIND       PRES   REMARKS
LK YELLOWSTONE   N/A     52  36  54 CALM      30.27F
W YELLOWSTONE  NOT AVBL

$$
WYZ002>013-054>058-071-098>099-030600-
NORTHERN WYOMING

CITY           SKY/WX    TMP DP  RH WIND       PRES   REMARKS
JACKSON        NOT AVBL
CODY           FAIR      70  41  35 NW3       30.09S
GREYBULL       FAIR      80  38  22 NW10      29.94S
WORLAND        FAIR      68  39  34 SE6       29.98S
SHERIDAN       FAIR      61  47  59 W3        30.04R
BUFFALO        FAIR      66  43  43 W5        30.12R
GILLETTE       FAIR      60  47  61 SW5       30.06S
HULETT         FAIR      68  48  49 E9        30.08S
NEWCASTLE      FAIR      72  45  37 NE5       30.05S

$$
WYZ014>020-022>026-101>103-030600-
CENTRAL WYOMING

CITY           SKY/WX    TMP DP  RH WIND       PRES   REMARKS
BIG PINEY      FAIR      70  31  23 E7        30.17F
PINEDALE       FAIR      68  28  22 S12G17    30.18S
DUBOIS         FAIR      63  27  25 CALM      30.21S
LANDER         FAIR      73  28  18 SW5       30.07R
RIVERTON       FAIR      76  34  21 E10       30.07S
CASPER         FAIR      74  44  34 E15       30.07R
DOUGLAS        FAIR      70  55  59 E12       30.08R

$$
WYZ021-027>030-104>119-030600-
SOUTHERN WYOMING

CITY           SKY/WX    TMP DP  RH WIND       PRES   REMARKS
EVANSTON       FAIR      66  42  41 SW12      30.18R
KEMMERER       FAIR      68  37  32 SE6       30.17S
FORT BRIDGER   CLEAR     72  39  30 W14       30.17S
ROCK SPRINGS   MOCLDY    71  43  36 SE33G43   30.15R
DIXON          FAIR      66  49  53 W7        30.21R
RAWLINS        FAIR      73  37  27 SW13G18   30.18R
SARATOGA       FAIR      70  37  30 S6        30.19R
LARAMIE        FAIR      64  45  49 S6        30.21S
CHEYENNE       FAIR      69  50  50 W3        30.14S
TORRINGTON     FAIR      69  53  56 N8        30.00S
PINE BLUFFS    FAIR      63  50  63 SW3       30.09S

$$



USA.gov is the U.S. government's official web portal to all federal, state and local government web resources and services.